Other Public Products
Issued by NWS Grand Forks, ND

Home | Current Version | Previous Version | Text Only | Print | Product List | Glossary On
Versions: 1 2 3 4 5 6 7 8 9 10 11 12 13 14 15 16 17 18 19 20 21 22 23 24 25 26 27 28 29 30 31 32 33 34 35 36 37 38 39 40 41 42 43 44 45 46 47 48 49 50
000
FPUS83 KFGF 251310
OPUFGF
PRAIRIE TO PINES WEATHER ROUNDUP
NATIONAL WEATHER SERVICE EASTERN NORTH DAKOTA/GRAND FORKS ND
800 AM CDT THU MAY 25 2017

 **SATELLITE DATA USED TO AUGMENT SKY COVER AT AUTOMATED STATIONS**
 *****  WEATHER ACROSS EASTERN NORTH DAKOTA  *****

CITY           SKY/WX    TMP DP  RH WIND       PRES   REMARKS
GRAND FORKS    CLOUDY    54  45  71 SE20      29.54R
GRAND FORKS AF CLOUDY    53  44  72 S13G21    29.54R
GRAND CITY NWS NOT AVBL
BUXTON         NOT AVBL
DEVILS LAKE    CLOUDY    52  45  77 SE22      29.47S
FARGO          FAIR      54  45  71 SE17G25   29.54R
WAHPETON ARPT  FAIR      52  43  71 SE15      29.57S
$$

 *****  WEATHER ACROSS CENTRAL AND WESTERN NORTH DAKOTA  *****

CITY           SKY/WX    TMP DP  RH WIND       PRES   REMARKS
JAMESTOWN      CLOUDY    52  44  74 SE16G24   29.46R
BISMARCK       FAIR      54  47  77 S9        29.42R
MINOT          FAIR      53  49  86 SE5       29.37S
MINOT AFB      FAIR      53  51  92 S14       29.36S
GARRISON         N/A     50  49  96 S6        29.39R
WILLISTON      FAIR      51  42  71 SW16G22   29.37R
DICKINSON      FAIR      47  45  93 W10       29.42R
HETTINGER      FAIR      47  46  97 NW8       29.46R
$$

 *****  OTHER OBSERVATIONS NORTHEAST NORTH DAKOTA  *****

CITY           SKY/WX    TMP DP  RH WIND       PRES   REMARKS
WALHALLA       NOT AVBL
LANGDON        CLOUDY    52  45  76 SE23G35   29.50R
CAVALIER       FAIR      54  43  66 S15       29.53R
GRAFTON        FAIR      54  45  71 SE17      29.56R
CANDO          NOT AVBL
FORT TOTTEN      N/A     51  45  80 S14       29.95S
ROLLA          CLOUDY    48  46  93 S14G21    29.46S
RUGBY          NOT AVBL
 ***** THE ABOVE OBSERVATIONS ARE NON NWS ARE NOT QUALITY
        CONTROLLED AND MAY MIS-REPORT RAIN FOR SNOW...
$$

 *****  OTHER OBSERVATIONS SOUTHEAST NORTH DAKOTA *****

CITY           SKY/WX    TMP DP  RH WIND       PRES   REMARKS
COOPERSTOWN    FAIR      52  46  82 SE21      29.50S
VALLEY CITY    FAIR      52  50  93 SE18G24   29.51S
OAKES          NOT AVBL
GWINNER        SUNNY     52  46  82 MISG      29.49F
SHEYENNE NWR     N/A     52  47  83 SE14      29.95S
BUFFALO        NOT AVBL
WYNDMERE         N/A     52  46  82 SE17        N/A
 ***** THE ABOVE OBSERVATIONS ARE NON NWS ARE NOT QUALITY
       CONTROLLED AND MAY MIS-REPORT RAIN FOR SNOW...
$$

  *****  WEATHER ACROSS NORTHERN MINNESOTA  *****

CITY           SKY/WX    TMP DP  RH WIND       PRES   REMARKS
FLAG ISLAND    FAIR      52  43  71 SE12      29.66S
WARROAD        FAIR      54  46  76 SE15      29.64F
ROSEAU         FAIR      54  46  76 SE12G17   29.61F
HALLOCK        FAIR      55  45  67 SE21G26   29.54F
THF RVR FALLS  FAIR      52  45  77 SE18      29.59F
HALSTAD          N/A     53  45  73 S13         N/A
FOSSTON        FAIR      52  45  76 SE9G18    29.60F
BAUDETTE       FAIR      49  42  77 SE14      29.68F
WASKISH        FAIR      52  45  76 SE9       29.68F
CROOKSTON      FAIR      54  45  71 S17       29.57R
$$
  *****  WEATHER ACROSS CENTRAL AND WEST MINNESOTA  *****

CITY           SKY/WX    TMP DP  RH WIND       PRES   REMARKS
BEMIDJI        FAIR      49  45  85 SE12      29.66F
PARK RAPIDS    FAIR      52  44  74 SE13      29.64F
WADENA         FAIR      48  46  93 SE10      29.64F
DETROIT LAKES  FAIR      50  45  81 SE21G26   29.58F
MOORHEAD       FAIR      54  45  71 SE17G24   29.56R
FERGUS FALLS   FAIR      54  45  71 S15       29.58S
ELBOW LAKE     FAIR      53  46  79 SE16      29.60S
MORRIS MN      FAIR      52  46  82 SE17G25   29.60S
STAPLES        FAIR      50  46  87 SE6       29.67F
WHEATON        FAIR      52  46  82 SE18      29.58F
$$
  *****  WEATHER ELSEWHERE ACROSS MINNESOTA  *****

CITY           SKY/WX    TMP DP  RH WIND       PRES   REMARKS
DULUTH         PTSUNNY   46  43  89 E6        29.75S
INTRNTL FALLS  FAIR      50  42  74 SE8       29.73S
ELY            FAIR      50  43  76 SE6       29.76F
CLOQUET        CLOUDY    45  43  93 E5        29.75S
BRAINERD       FAIR      54  47  77 SE8       29.70S
HIBBING        FAIR      49  45  86 SE8       29.74S
ALEXANDRIA     FAIR      52  46  80 SE15      29.64F
SAINT CLOUD    FAIR      52  50  93 SE9       29.71S
MINNEAPOLIS    FAIR      55  49  80 SE8       29.72S
$$

  *****  WEATHER ACROSS SOUTH DAKOTA  *****

CITY           SKY/WX    TMP DP  RH WIND       PRES   REMARKS
SIOUX FALLS    PTSUNNY   54  48  80 SE15G24   29.60F
BROOKINGS      FAIR      52  46  80 SE20G25   29.58F
WATERTOWN      FAIR      51  46  83 SE17G26   29.53F
HURON          FAIR      56  45  66 SE18G28   29.46F
SISSETON         N/A     51  48  89 S17       29.54F
ABERDEEN       FAIR      56  44  64 SE30G38   29.43F
MITCHELL       LGT RAIN  57  45  64 SE25G32   29.51S
PIERRE         FAIR      57  47  69 SW8       29.35R
MOBRIDGE       FAIR      55  45  68 SE10      29.37R
RAPID CITY     FAIR      54  40  59 NW13      29.50R
$$

  *****  SOME WEATHER IN NEARBY STATES *****

CITY           SKY/WX    TMP DP  RH WIND       PRES   REMARKS
GLASGOW MT     CLOUDY    52  42  69 W23G30    29.30F
GREAT FALLS MT LGT RAIN  46  39  76 NW21G30   29.64R
CHEYENNE WY    FAIR      51  43  74 W3        29.63R
SCOTTSBLUFF NE FAIR      56  46  69 NW8       29.54R
OMAHA NE       FAIR      57  49  74 S10       29.67R
DES MOINES IA  FAIR      55  49  80 SE5       29.71R
DAVENPORT IA   CLOUDY    53  50  89 N7        29.69R
CHICAGO IL     CLOUDY    56  51  84 NW13      29.59R
EAU CLAIRE WI  FAIR      56  50  80 E5        29.72S
LA CROSSE WI   CLOUDY    53  51  93 N5        29.72R
$$

  *****  SOME NATIONAL WEATHER *****

CITY           SKY/WX    TMP DP  RH WIND       PRES   REMARKS
LA GUARDIA NY  LGT RAIN  58  55  90 NE13      29.66S FOG
RALEIGH NC     PTSUNNY   64  62  93 W14       29.57S
ATLANTA GA     PTSUNNY   59  53  80 W16G22    29.74R
NEW ORLEANS LA FAIR      67  59  75 SW3       29.87R
OKLAHOMA CITY  FAIR      60  47  61 S21G26    29.65F
ALBUQUERQUE NM PTSUNNY   68  23  18 SW8       29.85R
SALT LAKE CITY MOCLDY    58  42  55 NW10      29.71R
LOS ANGELES CA CLOUDY    60  50  69 SE3       29.85S
BOISE ID       FAIR      45  32  60 E6        29.77R
SEATTLE WA     FAIR      48  45  89 SE6       29.92S
$$

*** WEATHER ACROSS MANITOBA...SASKATCHEWAN AND ONTARIO ***
                ***ONTARIO***

CITY           SKY/WX    TMP DP  RH WIND       PRES   REMARKS
GERALDTON      MOSUNNY   57  41  54 E5        29.83R
THUNDER BAY    SUNNY     50  39  66 VRB2      29.79S
SIOUX LOOKOUT  SUNNY     54  36  50 SE6       29.77S
TORONTO        LGT RAIN  54  52  94 E17G25    29.58S FOG
BIG TROUT LK   SUNNY     54  32  43 SE3       29.78R
PICKLE LAKE    MOSUNNY   57  32  38 S6        29.80S
DRYDEN         SUNNY     54  39  58 SE12      29.75S
KENORA         PTSUNNY   52  41  66 SE12G18   29.69F
$$
                *** MANITOBA***

CITY           SKY/WX    TMP DP  RH WIND       PRES   REMARKS
BRANDON        LGT RAIN  50  46  87 SE15      29.41S
DAUPHIN        CLOUDY    54  46  76 S15       29.38R
ISLAND LAKE    NOT AVBL
PILOT MOUND      N/A     52  43  71 S22         N/A
THE PAS        LGT RAIN  52  50  93 SE8       29.38S
THOMPSON       PTSUNNY   57  39  51 VRB2      29.56S
WINNIPEG       CLOUDY    54  43  66 SE20      29.54F
LYNN LAKE      MOSUNNY   54  41  62 SE8       29.48S
CHURCHILL      PTSUNNY   48  43  81 E7        29.64R
GILLAM         PTSUNNY   57  39  51 CALM      29.63R
$$
                ***SASKATCHEWAN***

CITY           SKY/WX    TMP DP  RH WIND       PRES   REMARKS
ESTEVAN        MOSUNNY   52  46  82 S15G22    29.31R
KINDERSLEY     LGT RAIN  46  45  93 N23G30    29.26S
LLOYDMINSTER   LGT RAIN  46  46 100 N18G31    29.41R
PRINCE ALBERT  LGT RAIN  48  46  93 NE8       29.27R
REGINA         CLOUDY    45  36  70 SE12      29.22F
YORKTON          N/A     52  48  87 S14G21    29.28R



USA.gov is the U.S. government's official web portal to all federal, state and local government web resources and services.